[ ตารางข้อมูล ] [ Min-Max ] [ วันนี้2 ] [ วันนี้4 ] [ เทียบ-A 3วัน ] [ เทียบ-B 4วัน ]   

วันนี้4   [ ◀ ช่วงเก่ากว่า ] [ ช่วงที่ 55 ] [ ช่วงใหม่กว่า ▶ ] [ ล่าสุด ]    [ 3 ชั่วโมง ] [ 6 ชั่วโมง ] [ 12 ชั่วโมง ] [ 24 ชั่วโมง ]   วันนี้4

อุณภูมิในตู้ Knockdown4529  ราย 24 ชั่วโมง  ที่วัดได้ ในช่วงวันเวลา 10/07/2026 (07:46) ถึง 11/07/2026 (07:46) 
ความชื้นในตู้ Knockdown4529  ราย 24 ชั่วโมง  ที่วัดได้ ในช่วงวันเวลา 10/07/2026 (07:46) ถึง 11/07/2026 (07:46) 
การใช้ไฟฟ้าในตู้ Knockdown4529  ราย 24 ชั่วโมง  ที่วัดได้ ในช่วงวันเวลา 10/07/2026 (07:46) ถึง 11/07/2026 (07:46) 

  DS18B20SHTC3PZEM-004TWiFi 
IDDate d/m/Y & Timedata1
สูง
data2
ต่ำ
data3
นอก
temp
pcb
hum
pcb
VoltAmpWattrssiTime
 2199  11/07/2026 07:44:13  29.6  29.7  28.6  29.8  69.1  230.4  0.04  4.6  -80  07:44 
 2198  11/07/2026 07:39:31  29.6  29.6  28.4  29.7  69.1  230.6  0.04  4.6  -86  07:39 
 2197  11/07/2026 07:34:47  29.5  29.6  28.2  29.7  69.3  224.8  0.04  4.6  -82  07:34 
 2196  11/07/2026 07:30:04  29.5  29.6  27.9  29.7  69.3  225.1  0.04  4.6  -81  07:30 
 2195  11/07/2026 07:25:21  29.5  29.6  27.6  29.6  69.4  229.8  0.04  4.6  -85  07:25 
 2194  11/07/2026 07:20:39  29.4  29.6  27.5  29.6  69.5  230.9  0.04  4.6  -84  07:20 
 2193  11/07/2026 07:15:56  29.4  29.6  27.5  29.6  69.5  230.8  0.04  4.6  -81  07:15 
 2192  11/07/2026 07:11:13  29.4  29.6  27.4  29.6  69.6  230.8  0.04  4.6  -85  07:11 
 2191  11/07/2026 07:06:30  29.4  29.6  27.3  29.5  69.5  230.8  0.04  4.6  -86  07:06 
 2190  11/07/2026 07:01:47  29.4  29.6  27.0  29.5  69.6  231.0  0.04  4.4  -79  07:01 
 2189  11/07/2026 06:57:04  29.4  29.6  27.0  29.6  69.7  229.4  0.04  4.6  -81  06:57 
 2188  11/07/2026 06:52:21  29.4  29.6  27.0  29.7  69.8  231.3  0.04  4.6  -79  06:52 
 2187  11/07/2026 06:47:38  29.4  29.6  27.0  29.5  69.6  231.0  0.04  4.6  -83  06:47 
 2186  11/07/2026 06:42:55  29.4  29.6  26.9  29.6  69.8  230.1  0.04  4.6  -80  06:42 
 2185  11/07/2026 06:38:12  29.4  29.6  27.0  29.6  69.8  231.3  0.04  4.6  -79  06:38 
 2184  11/07/2026 06:33:30  29.4  29.6  27.2  29.7  69.8  230.2  0.04  4.6  -80  06:33 
 2183  11/07/2026 06:28:48  29.5  29.6  27.2  29.8  69.8  231.1  0.04  4.6  -88  06:28 
 2182  11/07/2026 06:24:06  29.5  29.6  27.1  29.7  69.8  229.5  0.04  4.6  -80  06:24 
 2181  11/07/2026 06:19:22  29.5  29.7  27.0  29.6  69.8  230.7  0.04  4.6  -77  06:19 
 2180  11/07/2026 06:14:38  29.6  29.7  27.0  29.7  69.8  229.9  0.04  4.6  -75  06:14 
 2179  11/07/2026 06:09:55  29.6  29.7  27.0  29.7  69.8  228.0  0.04  4.6  -77  06:09 
 2178  11/07/2026 06:05:13  29.6  29.8  27.0  29.8  69.8  226.4  0.04  4.6  -79  06:05 
 2177  11/07/2026 06:00:28  29.6  29.8  27.1  29.7  69.7  229.1  0.04  4.6  -78  06:00 
 2176  11/07/2026 05:55:45  29.6  29.8  27.0  29.7  69.7  229.6  0.04  4.6  -77  05:55 

Data every 5 minute.


ใช้เวลาประมวลผล 0.02317 วินาที